Overview Statistics Trail Chart Weather Telemetry Raw packets
 

This is the latest recevied weather packets stored in our database for station/object KE8WMS. If no packets are shown the sender has not sent any weather packets the latest 10 day(s).

<< 91 92 93 94 95 96 97 >>
Time Temp. Humidity Pressure Rain* Wind** Luminosity Snow
1777150379 8.89° C 96% 1009.9 hPa 0 mm - 130 W/m² -
1777150076 8.89° C 96% 1010 hPa 0 mm - 158 W/m² -
1777149772 8.89° C 97% 1010 hPa 0 mm - 151 W/m² -
1777149469 8.89° C 97% 1010 hPa 0 mm - 158 W/m² -
1777149165 8.89° C 98% 1010.1 hPa 0 mm - 154 W/m² -
1777148864 8.33° C 98% 1010 hPa 0 mm - 195 W/m² -
1777148562 8.33° C 98% 1009.7 hPa 0 mm - 177 W/m² -
1777148257 8.33° C 99% 1009.9 hPa 0 mm - 160 W/m² -
1777147954 8.33° C 99% 1009.9 hPa 0 mm - 131 W/m² -
1777147650 8.33° C 98% 1009.9 hPa 0 mm - 125 W/m² -
1777147345 8.33° C 98% 1010.2 hPa 0 mm - 107 W/m² -
1777147041 8.33° C 98% 1010.2 hPa 0 mm - 112 W/m² -
1777146738 8.33° C 98% 1010.1 hPa 0 mm - 111 W/m² -
1777146433 8.33° C 98% 1010.2 hPa 0 mm - 111 W/m² -
1777146131 8.33° C 98% 1010 hPa 0 mm - 111 W/m² -
1777145830 8.33° C 98% 1010.1 hPa 0 mm - 107 W/m² -
1777145528 8.33° C 98% 1010.1 hPa 0 mm - 119 W/m² -
1777145222 8.33° C 98% 1010.1 hPa 0 mm - 115 W/m² -
1777144918 8.33° C 99% 1010.4 hPa 0 mm - 126 W/m² -
1777144617 8.33° C 99% 1010.2 hPa 0 mm - 135 W/m² -
1777144313 8.33° C 99% 1010 hPa 0 mm - 157 W/m² -
1777144009 8.33° C 99% 1009.8 hPa 0 mm - 146 W/m² -
1777143705 8.33° C 99% 1010 hPa 0 mm - 112 W/m² -
1777143402 8.33° C 99% 1010.1 hPa 0 mm - 102 W/m² -
1777143097 8.33° C 99% 1009.7 hPa 0 mm - 114 W/m² -

* Rain latest hour (hover to see other rain measurements)
** Current wind speed in m/s (hover to see current wind gust speed)